Weather History for Menomonie, WI

Change the Weather History Date:

Saturday, August 31, 2013

  Actual Average (KEAU) Record (KEAU)
Temperature  
Mean Temperature 72 °F 66 °F  
Max Temperature 86 °F 77 °F 97 °F (1898)
Min Temperature 59 °F 56 °F 38 °F (1967)
Degree Days  
Heating Degree Days 0 2  
Month to date heating degree days 30  
Since 1 June heating degree days 101  
Since 1 July heating degree days 39  
Cooling Degree Days 8 3  
Month to date cooling degree days 161  
Year to date cooling degree days 527  
Since 1 June cooling degree days 495  
Growing Degree Days 22 (Base 50)    
Moisture  
Dew Point 62 °F    
Average Humidity 72    
Maximum Humidity 96    
Minimum Humidity 44    
Precipitation  
Precipitation 0.00 in 0.13 in 2.90 in (1977)
Month to date precipitation 4.47  
Year to date precipitation 22.12  
Snow  
Snow 0.00 in 0.00 in 0.00 in ()
Month to date snowfall 0.0  
Since 1 June snowfall 0.0  
Since 1 July snowfall 0.0  
Snow Depth -    
Sea Level Pressure  
Sea Level Pressure 29.86 in    
Wind  
Wind Speed 3 mph (SSE)    
Max Wind Speed 10 mph    
Max Gust Speed -    
Visibility 10 miles    
Events      
T = Trace of Precipitation, MM = Missing Value Source: NWS Daily Summary

Daily Weather History Graph

Daily Weather History Graph

Search for Another Location

Airport:

Trip Planner

Search our weather history database for the weather conditions in past years. The results will help you decide how hot, cold, wet, or windy it might be!

Date:

Astronomy

Aug. 31, 2013 Rise Set
Actual Time 6:28 AM CDT 7:45 PM CDT
Civil Twilight 5:58 AM CDT 8:15 PM CDT
Nautical Twilight 5:21 AM CDT 8:52 PM CDT
Astronomical Twilight 4:43 AM CDT 9:30 PM CDT
Moon 1:50 AM CDT (8/31) 4:51 PM CDT (8/31)
Length of Visible Light 14h 17m
Length of Day
13h 17m
Waning Crescent, 21% of the Moon is Illuminated
Aug 31
Waning Crescent
Sep 5
New
Sep 12
First Quarter
Sep 19
Full
Sep 26
Last Quarter

Hourly Weather History & Observations

Time (CDT) Temp. Heat Index Dew Point Humidity Pressure Visibility Wind Dir Wind Speed Gust Speed Precip Events Conditions
12:15 AM 67.1 °F - 61.7 °F 83% 29.90 in 10.0 mi ENE 5.8 mph - N/A   Clear
12:35 AM 66.7 °F - 61.7 °F 84% 29.91 in 10.0 mi ENE 5.8 mph - N/A   Clear
12:55 AM 65.7 °F - 61.7 °F 87% 29.91 in 10.0 mi Calm Calm - N/A   Clear
1:15 AM 65.3 °F - 61.7 °F 88% 29.91 in 10.0 mi Calm Calm - N/A   Clear
1:35 AM 65.3 °F - 61.7 °F 88% 29.90 in 10.0 mi NE 3.5 mph - N/A   Clear
1:55 AM 64.6 °F - 61.3 °F 89% 29.90 in 10.0 mi ENE 3.5 mph - N/A   Clear
2:15 AM 64.4 °F - 61.5 °F 90% 29.90 in 10.0 mi Calm Calm - N/A   Clear
2:35 AM 64.4 °F - 61.5 °F 90% 29.90 in 10.0 mi Calm Calm - N/A   Clear
2:55 AM 63.9 °F - 60.8 °F 90% 29.91 in 10.0 mi Calm Calm - N/A   Clear
3:15 AM 63.0 °F - 60.6 °F 92% 29.91 in 10.0 mi Calm Calm - N/A   Clear
3:35 AM 62.6 °F - 60.4 °F 93% 29.91 in 10.0 mi Calm Calm - N/A   Clear
3:55 AM 62.6 °F - 60.3 °F 92% 29.91 in 10.0 mi Calm Calm - N/A   Clear
4:15 AM 61.5 °F - 59.0 °F 91% 29.90 in 10.0 mi Calm Calm - N/A   Clear
4:35 AM 60.8 °F - 59.4 °F 95% 29.91 in 10.0 mi Calm Calm - N/A   Clear
4:55 AM 61.5 °F - 60.1 °F 95% 29.91 in 10.0 mi Calm Calm - N/A   Clear
5:15 AM 61.7 °F - 60.1 °F 94% 29.91 in 10.0 mi ENE 3.5 mph - N/A   Clear
5:35 AM 60.8 °F - 59.4 °F 95% 29.91 in 10.0 mi Calm Calm - N/A   Clear
5:55 AM 59.9 °F - 58.5 °F 95% 29.90 in 10.0 mi Calm Calm - N/A   Clear
6:15 AM 60.6 °F - 59.4 °F 96% 29.89 in 10.0 mi Calm Calm - N/A   Clear
6:35 AM 60.6 °F - 59.2 °F 95% 29.90 in 10.0 mi Calm Calm - N/A   Clear
6:55 AM 59.2 °F - 57.9 °F 96% 29.90 in 10.0 mi Calm Calm - N/A   Clear
7:15 AM 61.0 °F - 59.9 °F 96% 29.90 in 10.0 mi Calm Calm - N/A   Clear
7:35 AM 63.3 °F - 61.0 °F 92% 29.90 in 10.0 mi Calm Calm - N/A   Clear
7:55 AM 63.9 °F - 61.0 °F 90% 29.90 in 10.0 mi Calm Calm - N/A   Clear
8:15 AM 64.6 °F - 61.5 °F 90% 29.91 in 10.0 mi Calm Calm - N/A   Clear
8:35 AM 66.0 °F - 61.7 °F 86% 29.91 in 10.0 mi East 4.6 mph - N/A   Clear
8:55 AM 68.0 °F - 61.5 °F 80% 29.90 in 10.0 mi ESE 8.1 mph - N/A   Clear
9:15 AM 68.2 °F - 61.5 °F 79% 29.89 in 10.0 mi ESE 6.9 mph - N/A   Clear
9:35 AM 69.1 °F - 61.9 °F 78% 29.89 in 10.0 mi SE 8.1 mph - N/A   Clear
9:55 AM 70.9 °F - 61.2 °F 71% 29.89 in 10.0 mi SE 3.5 mph - N/A   Clear
10:15 AM 71.4 °F - 61.5 °F 71% 29.90 in 10.0 mi ESE 3.5 mph - N/A   Clear
10:35 AM 72.7 °F - 61.7 °F 68% 29.88 in 10.0 mi ESE 6.9 mph - N/A   Clear
10:55 AM 74.3 °F - 62.1 °F 65% 29.88 in 10.0 mi ESE 5.8 mph - N/A   Clear
11:15 AM 74.8 °F - 62.2 °F 65% 29.88 in 10.0 mi SE 3.5 mph - N/A   Clear
11:35 AM 76.8 °F - 62.6 °F 61% 29.88 in 10.0 mi SE 3.5 mph - N/A   Clear
11:55 AM 77.4 °F - 62.4 °F 60% 29.87 in 10.0 mi ESE 4.6 mph - N/A   Clear
12:15 PM 78.6 °F - 62.6 °F 58% 29.86 in 10.0 mi East 4.6 mph - N/A   Clear
12:35 PM 78.8 °F - 62.6 °F 57% 29.86 in 10.0 mi East 5.8 mph - N/A   Clear
12:55 PM 80.4 °F 81.6 °F 62.4 °F 54% 29.86 in 10.0 mi East 3.5 mph - N/A   Clear
1:15 PM 81.0 °F 82.1 °F 62.2 °F 53% 29.86 in 10.0 mi Calm Calm - N/A   Clear
1:35 PM 82.4 °F 83.4 °F 62.6 °F 51% 29.85 in 10.0 mi East 4.6 mph - N/A   Clear
1:55 PM 83.3 °F 84.3 °F 62.6 °F 50% 29.84 in 10.0 mi SE 5.8 mph - N/A   Clear
2:15 PM 83.5 °F 84.3 °F 62.2 °F 49% 29.83 in 10.0 mi South 5.8 mph - N/A   Clear
2:35 PM 85.1 °F 85.4 °F 61.7 °F 45% 29.84 in 10.0 mi Calm Calm - N/A   Clear
2:55 PM 85.1 °F 85.4 °F 61.3 °F 45% 29.83 in 10.0 mi South 4.6 mph - N/A   Clear
3:15 PM 85.8 °F 86.3 °F 62.2 °F 45% 29.83 in 10.0 mi South 4.6 mph - N/A   Clear
3:35 PM 86.5 °F 87.0 °F 62.1 °F 44% 29.82 in 10.0 mi SSW 5.8 mph - N/A   Clear
3:55 PM 86.0 °F 86.6 °F 62.2 °F 45% 29.81 in 10.0 mi South 6.9 mph - N/A   Clear
4:15 PM 86.4 °F 86.8 °F 62.2 °F 44% 29.81 in 10.0 mi SSW 6.9 mph - N/A   Clear
4:35 PM 85.8 °F 86.8 °F 63.3 °F 47% 29.80 in 10.0 mi South 9.2 mph - N/A   Clear
4:55 PM 86.4 °F 87.3 °F 63.5 °F 46% 29.80 in 10.0 mi South 6.9 mph - N/A   Clear
5:15 PM 85.1 °F 85.9 °F 63.0 °F 47% 29.79 in 10.0 mi South 8.1 mph - N/A   Clear
5:35 PM 84.7 °F 85.6 °F 62.8 °F 48% 29.78 in 10.0 mi South 10.4 mph - N/A   Clear
5:55 PM 84.2 °F 85.2 °F 63.0 °F 49% 29.76 in 10.0 mi South 9.2 mph - N/A   Clear
6:15 PM 83.1 °F 84.0 °F 62.8 °F 50% 29.79 in 10.0 mi SSW 8.1 mph - N/A   Clear
6:35 PM 81.5 °F 82.7 °F 62.6 °F 53% 29.80 in 10.0 mi South 4.6 mph - N/A   Clear
6:55 PM 80.8 °F 82.2 °F 63.5 °F 56% 29.81 in 10.0 mi SSW 3.5 mph - N/A   Clear
7:15 PM 79.7 °F - 64.4 °F 59% 29.81 in 10.0 mi Calm Calm - N/A   Clear
7:35 PM 79.2 °F - 64.8 °F 61% 29.81 in 10.0 mi Calm Calm - N/A   Clear
7:55 PM 78.1 °F - 65.3 °F 65% 29.82 in 10.0 mi SW 3.5 mph - N/A   Clear
8:35 PM 77.5 °F - 66.4 °F 68% 29.85 in 10.0 mi WSW 4.6 mph - N/A   Clear
8:55 PM 76.8 °F - 66.2 °F 70% 29.85 in 10.0 mi SW 3.5 mph - N/A   Clear
9:15 PM 76.1 °F - 66.2 °F 71% 29.84 in 10.0 mi SSW 3.5 mph - N/A   Clear
9:35 PM 76.5 °F - 66.2 °F 70% 29.84 in 10.0 mi SW 3.5 mph - N/A   Scattered Clouds
9:55 PM 76.3 °F - 66.4 °F 71% 29.83 in 10.0 mi West 6.9 mph - N/A   Mostly Cloudy
10:15 PM 76.8 °F - 65.5 °F 68% 29.78 in 10.0 mi SSE 5.8 mph - N/A   Scattered Clouds
10:35 PM 75.9 °F - 65.7 °F 70% 29.78 in 10.0 mi Calm Calm - N/A   Scattered Clouds
10:55 PM 75.0 °F - 64.8 °F 70% 29.77 in 10.0 mi ESE 3.5 mph - N/A   Clear
11:15 PM 73.2 °F - 66.0 °F 78% 29.75 in 10.0 mi SSE 4.6 mph - N/A   Clear
11:35 PM 72.5 °F - 65.7 °F 79% 29.75 in 10.0 mi ESE 4.6 mph - N/A   Scattered Clouds
11:55 PM 71.6 °F - 66.6 °F 84% 29.74 in 10.0 mi ESE 3.5 mph - N/A   Scattered Clouds